Dewpoint
66 65 67 68 67 66 65 66 66 66 66 67 67 67 67 66 65 66 66 67 67 66 67 67 67 66 66 65 65 65 65 64 64 65 65 64 64 65 64 63 63 64 65 66 66 66 67 66 65 65 67 66 67 68 67 67 68 68 67 67 66 67 66 64 64 64 65 66 67 67 68 70 69 71 71 72 73 76 73 75 75 75 75 75 75
66 65 67 67 67 66 66 66 66 66 67 67 67 67 67 66 66 66 66 66 67 66 67 67 67 67 67 67 66 65 66 66 65 65 65 64 63 63 63 63 64 64 64 64 65 65 66 66 66 67 66 67 65 68 67 66 66 66 67 67 67 67 68 68 65 64 64 65 66 68 67 69 69 70 71 71 72 72 75 76 77 76 76 76 74
65 66 66 67 67 67 67 66 67 67 67 67 66 65 65 66 66 66 66 65 66 66 66 66 67 67 67 67 66 66 65 65 65 65 64 64 63 62 62 62 62 62 62 63 63 63 64 66 65 64 65 65 65 67 66 66 66 65 65 67 68 67 67 68 67 65 65 64 66 66 67 68 68 69 71 71 73 73 74 74 74 73 74 75 72
63 65 65 65 66 67 67 66 67 65 64 65 66 65 64 65 66 66 66 66 65 66 66 66 67 66 66 66 66 66 65 65 64 64 65 64 64 63 62 61 62 61 61 62 62 63 64 64 64 65 65 65 65 66 66 66 67 67 66 66 67 68 67 68 68 67 66 65 66 66 67 68 69 69 69 71 72 72 72 71 72 71 73 74 74
64 64 65 64 64 66 65 65 65 65 65 63 63 62 60 61 65 66 66 66 66 66 66 67 67 66 64 65 66 66 65 64 63 64 64 65 65 63 63 64 64 63 63 64 62 63 63 63 63 64 64 66 64 64 66 67 67 67 66 66 66 66 67 67 68 67 67 66 65 67 68 68 68 69 70 70 70 71 71 70 71 72 73 73 72
63 63 63 63 64 63 64 64 64 64 65 64 64 64 65 67 67 65 66 65 65 66 67 67 66 66 66 67 67 67 65 65 64 64 63 63 63 63 63 62 63 63 63 63 63 63 62 63 63 64 64 64 64 65 67 67 67 67 67 66 66 66 67 67 67 67 67 67 66 66 68 68 69 69 70 71 69 70 71 71 72 72 72 73 73
66 64 63 63 64 63 62 63 65 64 65 66 67 66 65 63 62 64 64 63 63 64 66 67 67 67 67 66 67 66 65 65 64 64 64 64 64 63 62 61 61 61 62 62 62 62 63 63 63 63 65 65 66 66 67 67 66 66 67 66 66 66 66 66 67 66 67 67 67 67 66 68 69 68 70 71 70 69 69 69 70 71 72 72 72
65 65 65 65 65 63 63 64 65 66 66 67 67 67 67 67 67 67 66 64 63 64 64 65 66 66 67 66 67 67 66 64 64 65 65 65 64 62 62 61 61 61 61 62 62 62 63 63 62 63 65 67 66 64 66 67 67 67 67 67 66 66 65 66 67 66 66 66 66 66 66 67 68 69 69 71 70 70 68 68 69 69 70 72 72
66 65 65 65 65 65 65 65 66 67 67 67 67 68 67 67 67 66 66 66 65 65 66 66 66 66 66 67 66 66 65 64 64 64 64 64 63 61 61 61 61 61 61 61 62 62 63 63 63 62 65 64 61 62 62 62 68 68 66 68 68 67 66 66 66 66 66 65 65 66 66 67 67 68 69 68 68 68 69 70 69 69 71 72 73
65 65 64 65 65 66 66 67 67 67 67 66 67 67 66 66 66 66 65 65 66 67 67 67 66 65 66 66 66 65 65 64 63 56 57 62 62 61 61 61 61 60 60 60 59 59 61 63 64 63 62 62 61 59 58 59 60 65 67 67 66 64 66 66 66 66 65 65 65 65 65 65 66 68 68 68 69 69 69 70 68 68 70 70 70
66 65 65 65 66 66 67 67 67 66 66 66 66 66 66 66 65 66 66 66 67 67 67 67 65 65 65 65 65 64 64 64 59 57 58 58 60 62 62 61 60 60 59 58 58 58 58 59 62 63 64 62 65 60 59 59 59 59 60 61 62 67 67 66 66 66 66 64 65 65 65 65 65 68 68 67 68 69 68 69 68 68 68 68 67
64 65 65 65 66 66 66 66 66 66 66 66 66 66 65 65 65 66 66 66 66 67 67 66 66 66 66 65 65 64 64 61 58 57 58 58 57 61 62 61 60 59 58 58 58 57 58 58 59 61 62 64 65 66 63 59 58 58 58 59 60 61 62 67 66 67 67 65 64 66 66 65 65 66 67 67 68 68 69 69 69 68 67 68 68
65 65 65 65 66 66 66 66 65 66 66 65 66 65 65 65 65 65 65 65 66 66 67 66 66 66 66 66 65 64 64 62 58 57 57 57 57 60 62 61 60 59 58 57 57 57 57 58 58 59 59 58 61 63 64 66 59 57 57 58 58 59 60 61 61 66 66 66 66 66 66 65 65 66 67 68 68 67 68 68 68 68 67 67 68
65 64 65 65 66 66 66 66 65 65 66 66 65 65 65 65 65 65 65 66 66 66 66 67 66 67 66 66 66 64 64 60 57 56 56 55 56 59 61 60 59 59 58 57 57 57 57 57 57 57 58 58 58 59 61 63 66 66 63 62 63 61 58 58 59 60 63 65 65 65 65 67 66 67 68 69 68 67 67 67 68 67 67 67 69
64 64 64 65 65 65 65 65 65 65 65 65 65 65 65 65 65 65 64 64 65 66 66 66 65 65 65 65 66 65 65 59 58 56 55 54 55 58 62 60 60 60 59 58 57 57 57 57 57 56 56 56 57 56 56 57 61 65 65 65 64 64 64 63 64 64 65 64 64 65 66 67 68 68 68 68 68 68 68 68 68 68 69 70 71
64 64 64 64 64 65 65 65 65 65 65 65 64 64 64 65 64 65 65 65 66 67 67 66 65 64 64 65 65 65 65 59 56 55 54 54 55 63 62 61 60 59 59 59 58 58 58 58 58 57 57 57 55 53 53 55 56 60 64 65 65 64 64 61 61 62 64 65 64 64 64 64 63 68 68 68 69 69 68 68 69 69 69 69 67
64 64 64 64 64 65 65 64 64 65 64 64 63 63 63 63 64 65 65 65 64 65 65 65 65 64 64 65 66 66 65 63 56 53 54 53 56 63 61 60 60 60 60 60 60 59 58 58 58 58 57 58 55 53 53 53 56 59 63 65 65 64 64 64 60 59 60 60 60 60 60 60 60 61 61 62 68 67 66 66 66 66 67 66 65
64 65 64 65 65 65 65 65 64 64 64 63 63 62 62 63 64 65 64 63 63 63 64 65 65 65 64 63 61 63 62 62 56 53 53 54 54 63 61 61 60 60 60 60 60 59 59 58 58 58 57 57 53 52 53 54 58 60 61 63 63 64 65 64 64 64 59 59 59 60 60 60 61 61 61 61 62 64 70 66 66 64 64 64 64
64 64 65 65 65 64 64 64 64 63 63 63 63 62 63 63 63 64 63 63 63 65 65 65 64 64 61 61 64 63 60 60 58 54 54 54 58 64 62 61 60 60 60 59 60 59 59 58 58 56 55 54 51 52 52 53 58 60 61 63 63 63 64 65 64 64 65 65 66 66 65 62 66 67 68 60 62 64 67 66 65 65 64 64 63
66 66 65 65 65 65 65 65 65 64 64 64 64 63 64 63 62 62 62 61 60 61 64 63 63 60 59 62 60 62 62 62 65 57 54 53 54 62 63 62 60 60 59 59 59 59 59 59 58 55 53 51 50 50 50 51 56 58 62 63 62 63 64 65 66 66 66 65 65 66 66 67 67 67 68 66 65 67 67 67 68 66 64 64 63
66 66 66 65 64 64 64 65 64 64 64 63 63 62 64 62 62 62 59 58 61 63 62 61 61 61 60 60 60 59 60 60 63 58 55 54 54 56 62 63 62 61 60 59 59 58 59 59 59 56 52 51 50 49 49 50 52 59 56 58 64 65 63 65 67 62 66 66 66 66 66 68 67 67 67 66 65 68 68 68 68 67 65 64 65
66 66 65 65 64 64 64 65 65 64 65 65 64 64 63 62 61 61 59 60 61 60 60 60 61 61 61 60 61 62 63 63 62 61 58 55 53 52 59 63 63 62 59 59 59 60 59 59 59 56 52 50 49 49 49 50 53 59 56 51 52 56 66 68 68 66 66 66 65 66 65 67 67 67 68 68 67 68 68 68 68 67 67 67 67
65 65 65 64 64 64 65 65 65 65 62 60 61 60 62 60 61 62 61 61 60 58 58 59 58 56 58 60 62 62 63 64 62 63 58 55 52 52 52 55 56 59 59 59 60 59 59 59 59 56 50 48 48 49 51 51 53 55 51 52 53 57 63 67 66 66 66 66 65 65 66 67 66 66 67 67 67 68 70 71 70 70 72 71 70
65 64 64 64 64 64 64 63 64 62 62 61 60 61 60 61 59 60 60 59 58 58 57 58 58 55 54 55 59 60 63 64 62 60 62 57 54 51 50 50 51 57 60 61 61 61 59 59 57 50 47 46 48 51 53 53 55 50 52 53 55 57 61 61 65 66 65 65 65 65 65 67 67 67 67 67 69 70 70 70 70 69 70 69 68
64 64 64 64 64 63 63 63 62 62 61 61 59 61 60 59 59 59 59 57 58 58 57 56 57 56 57 57 59 59 61 62 61 63 60 58 54 52 51 52 53 52 60 63 63 62 57 51 49 48 49 49 51 54 56 56 54 53 53 55 57 59 59 59 59 60 60 62 63 64 66 67 68 69 69 68 69 69 68 67 67 68 68 69 69
64 63 63 63 62 62 61 61 61 61 60 60 61 61 59 57 56 58 58 57 57 59 56 55 54 55 55 54 55 57 60 63 63 63 61 59 57 54 53 55 57 56 57 60 57 55 54 52 51 52 53 55 60 61 61 61 56 56 57 57 61 60 59 58 58 57 57 59 59 59 60 62 63 64 66 66 66 66 65 65 65 66 67 68 68
63 63 62 61 62 62 62 59 58 58 59 59 59 59 59 59 59 58 58 58 57 56 56 55 54 53 54 54 55 56 58 60 62 59 58 58 58 58 59 59 57 57 62 62 59 61 60 60 60 55 53 55 57 57 58 59 61 61 61 61 61 61 61 59 59 58 57 57 58 59 59 60 62 62 62 62 62 63 65 66 66 66 66 68 67
61 60 59 60 60 59 59 57 58 57 56 57 55 58 61 57 57 57 56 57 56 55 55 55 56 55 55 54 55 56 56 57 57 52 52 52 52 53 55 57 57 58 59 60 59 60 62 58 60 62 63 61 63 62 62 61 62 61 61 61 61 61 60 58 59 60 58 59 59 59 59 59 59 60 60 60 61 62 63 65 65 65 66 66 66
61 59 58 57 56 58 56 56 55 55 57 59 58 60 58 55 57 59 58 57 56 55 55 55 55 54 53 55 55 56 56 56 54 47 49 45 47 48 50 51 50 51 53 49 53 60 61 59 58 57 58 58 60 60 61 60 60 61 61 61 62 61 60 60 57 57 59 60 60 60 59 59 59 60 60 61 61 61 62 63 64 64 64 65 64
57 54 54 53 51 51 55 53 56 56 53 55 57 57 57 47 54 59 55 49 47 45 45 54 52 52 53 55 56 53 53 53 47 43 41 40 40 40 40 39 40 45 46 46 49 56 57 55 55 55 56 56 56 57 57 59 59 61 61 59 62 61 61 61 60 60 60 60 60 61 60 60 60 60 60 59 60 60 60 60 62 63 62 60 59
56 54 54 52 54 57 55 55 56 57 56 56 56 55 54 55 42 45 50 50 46 42 43 43 44 47 51 52 53 51 49 46 42 41 41 41 39 39 39 39 41 42 42 49 57 56 55 56 55 55 55 55 55 55 56 57 59 60 61 62 62 61 61 61 61 61 61 61 61 61 61 60 60 60 60 60 59 60 61 61 62 61 60 59 59
57 55 54 54 59 57 56 57 57 56 56 56 58 57 56 58 54 43 42 45 45 43 43 42 42 42 43 45 49 53 48 44 43 43 43 42 40 39 41 44 44 44 46 45 59 56 56 55 54 53 53 53 53 55 55 55 57 58 59 61 61 61 61 61 60 62 61 62 61 60 60 60 60 60 60 59 59 59 60 60 60 60 60 60 60
54 52 55 57 55 57 55 56 57 57 56 57 57 58 56 56 57 54 52 41 42 44 44 43 43 43 42 42 42 42 42 43 42 42 43 43 42 41 43 44 43 44 48 52 53 51 51 50 50 50 50 50 50 51 52 53 54 55 57 58 58 60 61 61 61 62 62 61 62 61 61 61 61 61 60 59 59 59 59 59 60 60 60 59 60
55 55 55 56 57 58 57 58 57 58 58 58 58 59 59 58 59 58 55 56 56 48 46 44 44 45 45 43 42 42 42 42 42 42 42 42 42 43 48 53 42 42 45 49 47 47 47 47 47 47 48 48 47 48 48 49 50 50 51 51 52 53 55 59 61 61 62 62 62 62 61 61 61 61 61 61 60 60 59 59 60 60 60 59 59
59 57 56 57 58 58 58 59 58 58 57 59 59 58 57 56 57 56 55 55 54 54 53 54 48 44 49 48 43 42 42 42 42 41 41 42 42 43 47 52 49 48 47 47 48 46 45 45 44 44 45 44 45 46 46 47 47 47 47 48 49 51 52 52 52 54 57 59 60 60 60 60 61 60 60 60 60 59 59 59 60 61 60 60 60
60 60 59 59 59 58 59 59 59 59 58 58 57 58 58 56 55 55 55 55 53 52 52 52 53 49 47 45 44 43 43 42 41 41 41 41 41 43 49 47 46 46 46 46 45 45 45 44 43 42 42 42 43 43 44 44 45 45 46 46 45 46 46 47 48 49 51 51 55 57 59 60 61 61 61 61 60 60 60 60 60 60 60 60 59
59 60 59 59 59 60 59 58 57 57 57 58 58 57 56 56 56 54 53 52 52 51 51 51 52 52 50 51 49 46 44 44 42 41 41 41 41 46 46 45 45 44 44 43 43 42 42 43 44 42 42 41 41 40 41 42 43 44 44 44 44 43 44 44 45 48 47 47 48 51 54 56 58 59 60 60 60 60 60 60 60 59 59 58 56
59 59 60 58 59 59 59 58 57 56 57 57 57 57 57 56 54 53 51 50 49 49 49 49 49 49 48 49 51 51 50 46 45 43 42 41 44 45 44 45 44 43 42 41 41 41 40 41 40 41 41 40 40 40 40 40 41 42 42 43 44 43 42 44 46 47 48 46 47 49 50 52 54 57 59 60 59 59 59 59 60 59 59 59 58
58 57 56 56 57 58 58 57 56 56 56 56 56 56 55 54 52 50 49 49 48 47 48 48 47 47 47 48 49 50 50 48 47 46 44 43 43 42 42 42 42 41 40 40 40 39 38 37 38 38 38 38 38 38 38 38 39 41 42 42 42 42 42 41 43 44 44 45 46 47 48 50 51 53 55 56 57 59 60 60 59 59 60 59 59
58 58 57 56 57 57 57 57 57 57 56 55 55 56 53 51 50 49 48 48 47 47 47 46 46 45 46 47 47 48 47 47 46 44 43 42 41 41 40 40 39 39 39 39 38 37 37 36 36 36 36 36 36 36 36 36 36 38 40 39 40 41 41 42 41 42 42 44 45 45 47 48 49 51 53 53 53 56 58 59 59 59 59 58 59
56 56 57 56 56 56 56 56 55 55 54 55 53 53 52 51 50 49 47 47 47 46 47 45 45 44 44 44 42 43 47 45 45 44 43 42 41 40 40 39 39 38 38 38 37 37 36 36 36 36 35 35 35 35 34 34 34 34 36 37 37 38 38 40 41 41 42 44 44 45 46 46 48 49 49 50 49 52 55 56 57 58 59 58 56
55 55 56 55 55 55 55 54 54 55 54 52 51 52 50 49 49 48 47 47 47 46 46 45 44 44 43 41 40 40 44 46 45 44 42 41 41 40 39 39 38 38 37 36 37 37 36 36 35 35 35 35 34 34 34 33 33 32 33 35 36 36 36 36 38 40 40 42 43 44 46 46 47 47 48 46 49 50 52 53 55 57 58 57 57
55 54 55 55 55 54 53 53 53 52 50 49 49 49 48 47 46 47 46 46 46 46 45 44 44 44 43 42 42 42 43 44 45 43 42 41 40 39 38 37 37 37 36 36 35 36 36 35 34 33 34 34 34 34 32 32 32 32 32 33 34 35 34 35 36 37 38 39 41 43 44 45 46 47 47 47 48 49 49 51 52 54 56 57 57
54 53 53 52 52 53 51 50 48 47 47 48 48 47 47 47 46 46 45 45 45 45 44 43 43 42 42 42 42 42 42 42 42 42 43 42 41 40 38 37 36 36 35 36 35 35 34 33 34 34 34 33 34 34 33 33 32 32 32 31 33 34 33 34 35 35 37 38 40 41 42 43 44 45 46 47 48 49 49 50 49 50 53 54 55
49 49 49 48 47 47 47 48 46 47 46 45 44 45 45 45 45 45 44 44 45 44 42 42 41 41 41 41 41 41 41 41 43 43 42 40 39 38 38 39 38 37 35 35 35 35 34 33 34 34 34 33 33 33 33 34 33 32 31 31 31 31 31 33 34 36 36 38 39 40 40 41 42 43 44 44 46 47 47 47 49 48 49 51 53
46 45 45 45 46 46 46 46 47 46 45 44 43 42 43 43 44 45 44 43 43 42 40 40 39 39 38 38 38 39 38 39 39 40 40 40 39 38 39 37 37 37 35 34 35 35 34 34 34 33 33 33 33 32 32 33 32 32 33 32 31 32 32 33 33 34 36 37 38 38 39 40 41 42 44 44 44 45 45 46 47 47 47 48 49
46 44 43 42 42 43 44 45 44 44 44 43 43 42 41 43 43 44 45 42 41 40 38 37 36 36 36 36 36 36 36 36 36 37 38 40 40 39 37 36 35 34 33 33 33 33 35 34 34 34 35 34 33 33 32 31 31 30 31 31 31 31 31 33 34 34 35 36 37 38 38 39 39 41 42 42 43 43 44 44 44 45 45 46 47
44 44 43 44 43 42 42 42 43 43 43 43 42 41 40 41 41 41 41 41 40 38 38 38 37 37 37 36 35 35 35 35 35 35 35 35 36 37 37 36 34 33 34 32 32 33 33 33 34 34 33 34 34 33 33 32 32 30 30 31 31 31 32 33 34 34 34 35 36 37 37 37 37 39 40 40 41 42 43 43 44 44 45 45 45
43 43 42 42 41 41 40 40 41 40 40 41 40 39 38 38 39 38 39 39 39 39 38 37 37 36 37 36 36 35 35 35 34 33 33 35 35 37 36 36 35 33 32 32 31 33 34 33 34 33 33 33 33 32 31 32 30 30 30 30 30 31 31 31 31 32 33 35 35 36 37 36 37 38 39 40 40 40 41 41 42 43 44 44 44
43 43 42 42 41 41 40 40 38 38 39 39 38 36 37 38 38 38 37 38 37 37 36 36 36 35 35 34 35 34 34 33 33 32 31 32 32 33 32 32 32 32 31 31 32 32 32 34 34 32 32 32 32 32 31 31 31 30 29 29 30 30 30 31 31 32 32 34 34 34 35 35 36 36 37 37 37 37 39 40 40 41 43 43 43
43 42 41 41 41 40 39 39 38 38 38 37 37 37 37 36 37 37 38 37 37 36 36 36 35 34 35 34 35 34 33 33 31 31 31 31 32 32 32 31 31 32 32 31 30 31 32 33 32 32 31 31 31 30 31 30 31 30 29 29 29 29 30 31 31 31 32 33 34 33 33 34 35 35 35 35 36 35 37 37 38 39 40 41 42